Radioactive Concentration measured by Seawater Radiation Monitor near Fukushima Daiichi Nuclear Power Station
Date,Time,Cs137(Bq/L),Cs134(Bq/L),Total β(Bq/L)
2017/06/22,00:00,0.95,0.068,ND
2017/06/22,00:10,1.0,0.065,ND
2017/06/22,00:20,1.1,0.065,ND
2017/06/22,00:30,1.2,0.068,ND
2017/06/22,00:40,1.2,0.077,ND
2017/06/22,00:50,1.3,0.081,ND
2017/06/22,01:00,1.3,0.087,ND
2017/06/22,01:10,1.3,0.10,ND
2017/06/22,01:20,1.3,0.11,ND
2017/06/22,01:30,1.4,0.11,ND
2017/06/22,01:40,1.4,0.12,9.3
2017/06/22,01:50,1.4,0.13,ND
2017/06/22,02:00,1.5,0.13,10
2017/06/22,02:10,1.6,0.13,9.7
2017/06/22,02:20,1.7,0.14,ND
2017/06/22,02:30,1.8,0.15,ND
2017/06/22,02:40,1.8,0.17,ND
2017/06/22,02:50,1.9,0.16,ND
2017/06/22,03:00,1.9,0.18,ND
2017/06/22,03:10,1.8,0.20,ND
2017/06/22,03:20,1.7,0.19,ND
2017/06/22,03:30,1.7,0.16,ND
2017/06/22,03:40,1.6,0.17,ND
2017/06/22,03:50,1.5,0.15,ND
2017/06/22,04:00,1.5,0.12,ND
2017/06/22,04:10,1.4,0.14,ND
2017/06/22,04:20,1.4,0.14,ND
2017/06/22,04:30,1.4,0.14,ND
2017/06/22,04:40,1.5,0.11,ND
2017/06/22,04:50,1.5,0.15,ND
2017/06/22,05:00,1.5,0.15,ND
2017/06/22,05:10,1.6,0.12,ND
2017/06/22,05:20,1.6,0.12,ND
2017/06/22,05:30,1.6,0.13,ND
2017/06/22,05:40,1.6,0.12,ND
2017/06/22,05:50,1.6,0.12,ND
2017/06/22,06:00,1.6,0.11,ND
2017/06/22,06:10,1.4,0.12,ND
2017/06/22,06:20,1.4,0.11,ND
2017/06/22,06:30,1.4,0.10,ND
2017/06/22,06:40,1.4,0.14,ND
2017/06/22,06:50,1.5,0.11,ND
2017/06/22,07:00,1.5,0.12,ND
2017/06/22,07:10,1.6,0.11,ND
2017/06/22,07:20,1.6,0.12,ND
2017/06/22,07:30,1.6,0.12,ND
2017/06/22,07:40,1.6,0.13,ND
2017/06/22,07:50,1.6,0.13,ND
2017/06/22,08:00,1.6,0.12,ND
2017/06/22,08:10,1.6,0.13,ND
2017/06/22,08:20,1.5,0.13,ND
2017/06/22,08:30,1.5,0.13,ND
2017/06/22,08:40,1.5,0.12,ND
2017/06/22,08:50,1.4,0.12,ND
2017/06/22,09:00,1.4,0.12,ND
2017/06/22,09:10,1.4,0.11,ND
2017/06/22,09:20,1.4,0.11,ND
2017/06/22,09:30,1.4,0.11,ND
2017/06/22,09:40,1.4,0.098,ND
2017/06/22,09:50,1.4,0.093,ND
2017/06/22,10:00,1.3,0.082,ND
2017/06/22,10:10,1.3,0.083,ND
2017/06/22,10:20,1.2,0.075,ND
2017/06/22,10:30,1.1,0.074,ND
2017/06/22,10:40,1.1,0.074,ND
2017/06/22,10:50,1.0,0.074,ND
2017/06/22,11:00,1.0,0.078,ND
2017/06/22,11:10,0.99,0.065,ND
2017/06/22,11:20,0.97,0.073,ND
2017/06/22,11:30,0.97,0.076,ND
2017/06/22,11:40,1.0,0.083,ND
2017/06/22,11:50,1.0,0.068,ND
2017/06/22,12:00,1.0,0.072,ND
2017/06/22,12:10,1.0,0.074,ND
2017/06/22,12:20,1.0,0.072,ND
2017/06/22,12:30,1.0,0.071,ND
2017/06/22,12:40,0.98,0.072,9.0
2017/06/22,12:50,0.95,0.084,ND
2017/06/22,13:00,0.94,0.067,ND
2017/06/22,13:10,0.94,0.073,ND
2017/06/22,13:20,0.94,0.062,ND
2017/06/22,13:30,0.94,0.047,ND
2017/06/22,13:40,0.92,0.035,ND
2017/06/22,13:50,0.90,0.040,ND
2017/06/22,14:00,0.93,0.051,ND
2017/06/22,14:10,0.88,0.047,ND
2017/06/22,14:20,0.87,0.053,ND
2017/06/22,14:30,0.86,0.062,ND
2017/06/22,14:40,0.86,0.066,ND
2017/06/22,14:50,0.90,0.060,ND
2017/06/22,15:00,0.86,0.062,ND
2017/06/22,15:10,0.87,0.065,ND
2017/06/22,15:20,0.87,0.064,ND
2017/06/22,15:30,0.92,0.061,ND
2017/06/22,15:40,0.93,0.067,ND
2017/06/22,15:50,0.98,0.066,ND
2017/06/22,16:00,1.0,0.068,ND
2017/06/22,16:10,1.0,0.063,ND
2017/06/22,16:20,1.0,0.069,ND
2017/06/22,16:30,0.99,0.068,ND
2017/06/22,16:40,0.99,0.058,9.2
2017/06/22,16:50,0.96,0.057,ND
2017/06/22,17:00,0.97,0.054,ND
2017/06/22,17:10,1.0,0.057,ND
2017/06/22,17:20,1.1,0.051,ND
2017/06/22,17:30,1.1,0.056,ND
2017/06/22,17:40,1.1,0.062,ND
2017/06/22,17:50,1.1,0.069,ND
2017/06/22,18:00,1.1,0.071,ND
2017/06/22,18:10,1.1,0.076,ND
2017/06/22,18:20,1.1,0.089,ND
2017/06/22,18:30,1.0,0.11,ND
2017/06/22,18:40,0.99,0.11,ND
2017/06/22,18:50,0.95,0.10,ND
2017/06/22,19:00,0.88,0.094,ND
2017/06/22,19:10,0.79,0.087,ND
2017/06/22,19:20,0.69,0.080,ND
2017/06/22,19:30,0.64,0.072,ND
2017/06/22,19:40,0.58,0.067,ND
2017/06/22,19:50,0.58,0.036,ND
2017/06/22,20:00,0.56,0.033,ND
2017/06/22,20:10,0.54,0.033,ND
2017/06/22,20:20,0.52,0.028,ND
2017/06/22,20:30,0.53,ND,ND
2017/06/22,20:40,0.52,ND,ND
2017/06/22,20:50,0.50,ND,ND
2017/06/22,21:00,0.46,0.025,ND
2017/06/22,21:10,0.47,0.026,ND
2017/06/22,21:20,0.55,ND,ND
2017/06/22,21:30,0.51,ND,ND
2017/06/22,21:40,0.56,ND,ND
2017/06/22,21:50,0.57,ND,ND
2017/06/22,22:00,0.57,ND,ND
2017/06/22,22:10,0.55,ND,ND
2017/06/22,22:20,0.47,ND,ND
2017/06/22,22:30,0.51,ND,ND
2017/06/22,22:40,0.53,ND,ND
2017/06/22,22:50,0.52,ND,ND
2017/06/22,23:00,0.52,ND,8.8
2017/06/22,23:10,0.54,ND,ND
2017/06/22,23:20,0.55,ND,ND
2017/06/22,23:30,0.60,ND,ND
2017/06/22,23:40,0.49,ND,ND
2017/06/22,23:50,0.52,ND,ND
